Weather History for Burnet, TX

Change the Weather History Date:

Thursday, March 28, 2013

  Actual Average Record
Temperature  
Mean Temperature 62 °F -  
Max Temperature 73 °F 69 °F 88 °F (2014)
Min Temperature 53 °F 50 °F 36 °F (2009)
Degree Days  
Heating Degree Days 2    
Growing Degree Days 12 (Base 50)    
Moisture  
Dew Point 52 °F    
Average Humidity 71    
Maximum Humidity 83    
Minimum Humidity 55    
Precipitation  
Precipitation 0.00 in - - ()
Sea Level Pressure  
Sea Level Pressure 30.15 in    
Wind  
Wind Speed 10 mph (South)    
Max Wind Speed 17 mph    
Max Gust Speed 25 mph    
Visibility 10 miles    
Events      
Averages and records for this station are not official NWS values.
T = Trace of Precipitation, MM = Missing Value Source: NWS Daily Summary

Daily Weather History Graph

Daily Weather History Graph

Search for Another Location

Airport:

Trip Planner

Search our weather history database for the weather conditions in past years. The results will help you decide how hot, cold, wet, or windy it might be!

Date:

Astronomy

Mar. 28, 2013 Rise Set
Actual Time 7:26 AM CDT 7:49 PM CDT
Civil Twilight 7:02 AM CDT 8:13 PM CDT
Nautical Twilight 6:34 AM CDT 8:42 PM CDT
Astronomical Twilight 6:05 AM CDT 9:10 PM CDT
Moon 9:32 PM CDT (3/28) 8:03 AM CDT (3/28)
Length of Visible Light 13h 11m
Length of Day
12h 23m
Full, 98% of the Moon is Illuminated
Mar 28
Full
Apr 2
Last Quarter
Apr 10
New
Apr 18
First Quarter
Apr 25
Full

Hourly Weather History & Observations

Time (CDT) Temp. Dew Point Humidity Pressure Visibility Wind Dir Wind Speed Gust Speed Precip Events Conditions
12:53 AM 55.9 °F 45.0 °F 67% 30.16 in 10.0 mi South 10.4 mph - N/A   Clear
1:53 AM 55.0 °F 46.0 °F 72% 30.15 in 10.0 mi South 9.2 mph - N/A   Clear
2:53 AM 54.0 °F 46.9 °F 77% 30.14 in 10.0 mi South 10.4 mph - N/A   Clear
3:53 AM 54.0 °F 46.9 °F 77% 30.13 in 10.0 mi SSE 5.8 mph - N/A   Clear
4:53 AM 53.1 °F 48.0 °F 83% 30.12 in 10.0 mi SSE 4.6 mph - N/A   Scattered Clouds
5:02 AM 54.0 °F 48.0 °F 80% 30.15 in 10.0 mi SSE 3.5 mph - N/A   Mostly Cloudy
5:53 AM 55.9 °F 50.0 °F 80% 30.13 in 10.0 mi SSE 5.8 mph - N/A   Overcast
6:53 AM 55.9 °F 50.0 °F 80% 30.15 in 10.0 mi SSE 5.8 mph - N/A   Overcast
7:53 AM 57.0 °F 51.1 °F 81% 30.16 in 9.0 mi SSE 8.1 mph - N/A   Overcast
8:53 AM 57.9 °F 52.0 °F 81% 30.18 in 9.0 mi SE 6.9 mph - N/A   Overcast
9:08 AM 57.9 °F 52.0 °F 81% 30.20 in 10.0 mi SSE 8.1 mph - N/A   Overcast
9:53 AM 59.0 °F 52.0 °F 78% 30.19 in 10.0 mi South 6.9 mph - N/A   Overcast
10:53 AM 61.0 °F 53.1 °F 75% 30.19 in 9.0 mi SSE 9.2 mph - N/A   Overcast
11:45 AM 62.1 °F 53.1 °F 72% 30.21 in 10.0 mi South 10.4 mph 16.1 mph N/A   Overcast
11:53 AM 62.1 °F 54.0 °F 75% 30.19 in 10.0 mi South 10.4 mph 17.3 mph N/A   Overcast
12:53 PM 66.0 °F 55.0 °F 68% 30.18 in 10.0 mi South 16.1 mph 25.3 mph N/A   Overcast
1:53 PM 68.0 °F 55.9 °F 65% 30.15 in 10.0 mi South 15.0 mph 23.0 mph N/A   Overcast
2:18 PM 70.0 °F 55.9 °F 61% 30.17 in 10.0 mi South 17.3 mph 25.3 mph N/A   Mostly Cloudy
2:53 PM 70.0 °F 55.9 °F 61% 30.14 in 10.0 mi South 10.4 mph - N/A   Overcast
3:53 PM 71.1 °F 55.0 °F 57% 30.12 in 10.0 mi South 16.1 mph 24.2 mph N/A   Mostly Cloudy
4:53 PM 71.1 °F 54.0 °F 55% 30.11 in 10.0 mi South 16.1 mph 23.0 mph N/A   Overcast
5:53 PM 72.0 °F 55.0 °F 55% 30.11 in 10.0 mi South 13.8 mph 20.7 mph N/A   Overcast
6:53 PM 68.0 °F 55.9 °F 65% 30.12 in 10.0 mi South 13.8 mph 23.0 mph N/A   Mostly Cloudy
7:53 PM 66.9 °F 55.0 °F 66% 30.13 in 10.0 mi South 9.2 mph - N/A   Mostly Cloudy
8:53 PM 64.0 °F 55.0 °F 73% 30.13 in 10.0 mi South 4.6 mph - N/A   Partly Cloudy
9:53 PM 66.0 °F 55.0 °F 68% 30.13 in 10.0 mi South 9.2 mph 17.3 mph N/A   Mostly Cloudy
10:53 PM 66.0 °F 55.0 °F 68% 30.14 in 10.0 mi South 10.4 mph 19.6 mph N/A   Overcast
11:53 PM 64.0 °F 54.0 °F 70% 30.14 in 10.0 mi South 16.1 mph 21.9 mph N/A   Clear